Showing default

ALSAT 2B, 41786

Orbit data source: Space-Track

ALSAT 2B, 41786 is a payload satellite owned by ASAL (DZ) in SSO that was launched on Mon, 26 Sep 2016 UTC via a PSLV launch vehicle from the Sirharikota (SRI). Payload-class satellites include a variety of spacecraft equipped with specific instruments for various scientific and technological missions. These include communications satellites like Starlink; space stations such as the ISS; scientific satellites like the Hubble; Earth observation satellites from companies like Planet Labs, Umbra, and HawkEye 360; GPS; miniature CubeSats for education and research; and military/defense satellites.

Loading next visibility...
Identifier
41786, 2016-059D
Orbit
SSO
Country
Flag of DZDZ / ALG
Related business
Manufacturer
Airbus/Toulouse
Mission
Operational Civil Imaging
Bus & Motor
MYRIADE, AOCS
Mass
117 kg wet, 117 kg dry
Launch date (UTC)
2016-09-26 (9 years ago)
Launch vehicle
PSLV
Launch site
Sirharikota (SRI)
Object type
Payload
Rocket body
Debris
Shape & HBR
Box + 1 Pan, 0.9 m
Radar Cross Section
0.912 m², Medium (>0.1 m² and < 1m²)

Expand to show TLE details & history
Last TLE update: 10 hours ago

TLE from 10 hours ago
0 ALSAT 2B
1 41786U 16059D   25310.32393168  .00002197  00000-0  37074-3 0  9996
2 41786  98.0221  11.5698 0001258 125.9714 234.1609 14.70445570488018
Epoch: 2025-11-06T07:46Z
TLE epoch observation values (Epoch: 2025-11-06T07:46:27.697Z)
Latitude
-0.00002°
Longitude
-150.82949°
Altitude
663.169 km
Speed
7.525 km/s
True Right ascension
00h 46m 16s
True Declination
0° 00' 00"
Sunlit
Object was in full shadow at epoch
Visualization orbit readout
Latitude
Unknown
Longitude
Unknown
Altitude
Unknown
Speed
Unknown
Apparent Right ascension
Unknown
Apparent Declination
Unknown
Sunlit
N/A
Visualization observer readout
Local Sidereal Time
14:09:34
Azimuth
Unknown
Elevation
Unknown
Doppler factor
Unknown
Orbital elements
Apogee altitude
657.59 km
Perigee altitude
655.82 km
Semi-major axis
7,034.842 km
Eccentricity
0.00013
Inclination
98.0221°
RAAN
11.5698°
Arg. of periapsis
125.9714°
True anomaly
234.14921°
Mean anomaly
234.1609°
Eccentric anomaly
234.15506°
Mean motion
3.67842 °/min
Orbital period
97.87 mins
BSTAR
0.00037074
Loading maneuver chart data...
Computing Atmospheric mass density...
Loading historical data...
Loading historical data...
Loading historical data...
Loading historical data...
Loading historical data...
Loading historical data...
Loading historical data...

Documentation

Showing up to 5 results
|